When you browse on this site, cookies collect data to enhance your experience and personalize the content and advertising you see.
Visit our Privacy Policy to learn more. By continuing to use the site, you agree to this use of cookies and data.
  • In Czech Republic
  • List of Countries
  • For 7 days
  • Water Temperature
  • Satellite Maps
  • Weather Map
  • Weather Widgets
  • user-avatar
    Login

    Hourly Weather Bregenz

    Today, 24 January, Thursday

    Time Temperature Precipitation Wind Pressure Humidity
    00:00 -12°C° 0 mm 1 mps 629 mmHg 90%
    01:00 -13°C° 0 mm 1 mps 630 mmHg 90%
    02:00 -13°C° 0 mm 1 mps 630 mmHg 89%
    03:00 -13°C° 0 mm 1 mps 630 mmHg 88%
    04:00 -13°C° 0 mm 1 mps 630 mmHg 87%
    05:00 -13°C° 0 mm 1 mps 631 mmHg 86%
    06:00 -13°C° 0 mm 1 mps 631 mmHg 86%
    07:00 -13°C° 0 mm 1 mps 632 mmHg 85%
    08:00 -12°C° 0 mm 1 mps 632 mmHg 84%
    09:00 -11°C° 0 mm 1 mps 633 mmHg 83%
    10:00 -10°C° 0 mm 1 mps 634 mmHg 82%
    11:00 -9°C° 0 mm 1 mps 634 mmHg 82%
    12:00 -8°C° 0 mm 1 mps 634 mmHg 81%
    13:00 -7°C° 0 mm 1 mps 634 mmHg 81%
    14:00 -7°C° 0.1 mm 1 mps 635 mmHg 83%
    15:00 -7°C° 0.1 mm 1 mps 635 mmHg 86%
    16:00 -7°C° 0.1 mm 1 mps 635 mmHg 88%
    17:00 -8°C° 0.1 mm 1 mps 636 mmHg 90%
    18:00 -9°C° 0.1 mm 1 mps 636 mmHg 92%
    19:00 -9°C° 0.1 mm 1 mps 637 mmHg 95%
    20:00 -9°C° 0.1 mm 1 mps 637 mmHg 95%
    21:00 -9°C° 0.1 mm 1 mps 638 mmHg 95%
    22:00 -9°C° 0.1 mm 1 mps 638 mmHg 95%
    23:00 -10°C° 0.1 mm 1 mps 638 mmHg 95%

    Tomorrow, 25 January, Friday

    Time Temperature Precipitation Wind Pressure Humidity
    00:00 -10°C° 0.1 mm 1 mps 638 mmHg 94%
    01:00 -10°C° 0.1 mm 1 mps 638 mmHg 94%
    02:00 -11°C° 0 mm 1 mps 638 mmHg 95%
    03:00 -12°C° 0 mm 0 mps 638 mmHg 95%
    04:00 -12°C° 0 mm 0 mps 638 mmHg 95%
    05:00 -13°C° 0 mm 0 mps 638 mmHg 94%
    06:00 -13°C° 0 mm 0 mps 638 mmHg 94%
    07:00 -14°C° 0 mm 0 mps 639 mmHg 93%
    08:00 -13°C° 0 mm 1 mps 639 mmHg 91%
    09:00 -12°C° 0 mm 1 mps 640 mmHg 88%
    10:00 -11°C° 0 mm 1 mps 640 mmHg 86%
    11:00 -10°C° 0 mm 1 mps 640 mmHg 83%
    12:00 -9°C° 0 mm 1 mps 640 mmHg 80%
    13:00 -8°C° 0 mm 1 mps 641 mmHg 76%
    14:00 -8°C° 0 mm 1 mps 641 mmHg 78%
    15:00 -8°C° 0 mm 1 mps 641 mmHg 80%
    16:00 -8°C° 0 mm 1 mps 641 mmHg 81%
    17:00 -10°C° 0 mm 1 mps 641 mmHg 83%
    18:00 -11°C° 0 mm 1 mps 642 mmHg 85%
    19:00 -13°C° 0 mm 1 mps 642 mmHg 87%
    20:00 -13°C° 0 mm 1 mps 642 mmHg 86%
    21:00 -15°C° 0 mm 2 mps 642 mmHg 86%
    22:00 -16°C° 0 mm 2 mps 643 mmHg 85%
    23:00 -16°C° 0 mm 2 mps 643 mmHg 83%

    Day after tomorrow, 26 January, Saturday

    Time Temperature Precipitation Wind Pressure Humidity
    00:00 -16°C° 0 mm 2 mps 643 mmHg 81%
    01:00 -16°C° 0 mm 2 mps 643 mmHg 79%
    02:00 -16°C° 0 mm 2 mps 643 mmHg 77%
    03:00 -15°C° 0 mm 2 mps 643 mmHg 75%
    04:00 -15°C° 0 mm 2 mps 642 mmHg 73%
    05:00 -15°C° 0 mm 2 mps 643 mmHg 71%
    06:00 -14°C° 0 mm 2 mps 643 mmHg 68%
    07:00 -14°C° 0 mm 2 mps 643 mmHg 66%
    08:00 -12°C° 0 mm 2 mps 643 mmHg 66%
    09:00 -10°C° 0 mm 2 mps 643 mmHg 66%
    10:00 -8°C° 0 mm 2 mps 644 mmHg 65%
    11:00 -4°C° 0 mm 1 mps 643 mmHg 65%
    12:00 -2°C° 0 mm 1 mps 643 mmHg 65%
    13:00 -1°C° 0 mm 1 mps 643 mmHg 66%
    14:00 -2°C° 0 mm 0 mps 643 mmHg 68%
    15:00 -2°C° 0 mm 0 mps 642 mmHg 71%
    16:00 -3°C° 0 mm 0 mps 642 mmHg 74%
    17:00 -3°C° 0 mm 1 mps 641 mmHg 75%
    18:00 -4°C° 0 mm 1 mps 641 mmHg 76%
    19:00 -7°C° 0 mm 2 mps 641 mmHg 77%
    20:00 -7°C° 0 mm 2 mps 640 mmHg 77%
    21:00 -8°C° 0 mm 2 mps 640 mmHg 77%
    22:00 -8°C° 0 mm 2 mps 640 mmHg 76%
    23:00 -8°C° 0 mm 2 mps 639 mmHg 76%

    27 January, Sunday

    Time Temperature Precipitation Wind Pressure Humidity
    00:00 -8°C° 0 mm 2 mps 639 mmHg 75%
    01:00 -8°C° 0 mm 2 mps 638 mmHg 74%
    02:00 -8°C° 0 mm 2 mps 638 mmHg 74%
    03:00 -8°C° 0 mm 2 mps 637 mmHg 74%
    04:00 -7°C° 0 mm 2 mps 637 mmHg 74%
    05:00 -7°C° 0 mm 2 mps 636 mmHg 75%
    06:00 -7°C° 0 mm 2 mps 636 mmHg 75%
    07:00 -7°C° 0 mm 2 mps 635 mmHg 75%
    08:00 -6°C° 0 mm 2 mps 635 mmHg 75%
    09:00 -5°C° 0 mm 2 mps 635 mmHg 74%
    10:00 -4°C° 0 mm 2 mps 635 mmHg 74%
    11:00 -3°C° 0.1 mm 2 mps 634 mmHg 77%
    12:00 0°C° 0.1 mm 1 mps 634 mmHg 80%
    13:00 +1°C° 0.1 mm 1 mps 634 mmHg 82%
    14:00 -2°C° 0.3 mm 2 mps 634 mmHg 85%
    15:00 -2°C° 0.3 mm 2 mps 633 mmHg 88%
    16:00 -3°C° 0.3 mm 2 mps 633 mmHg 91%
    17:00 -4°C° 0.1 mm 2 mps 633 mmHg 90%
    18:00 -4°C° 0.1 mm 2 mps 633 mmHg 90%
    19:00 -5°C° 0.1 mm 2 mps 633 mmHg 90%
    20:00 -5°C° 0.1 mm 2 mps 633 mmHg 90%
    21:00 -5°C° 0.1 mm 2 mps 633 mmHg 91%
    22:00 -5°C° 0.1 mm 2 mps 633 mmHg 91%
    23:00 -5°C° 0.1 mm 2 mps 633 mmHg 91%

    28 January, Monday

    Time Temperature Precipitation Wind Pressure Humidity
    00:00 -6°C° 0.1 mm 2 mps 633 mmHg 91%
    01:00 -7°C° 0.1 mm 3 mps 633 mmHg 91%
    02:00 -7°C° 0.3 mm 3 mps 633 mmHg 91%
    03:00 -7°C° 0.3 mm 3 mps 633 mmHg 92%
    04:00 -8°C° 0.3 mm 4 mps 633 mmHg 93%
    05:00 -8°C° 0.1 mm 3 mps 634 mmHg 93%
    06:00 -8°C° 0.1 mm 3 mps 634 mmHg 92%
    07:00 -9°C° 0.1 mm 3 mps 634 mmHg 92%
    08:00 -9°C° 0.1 mm 3 mps 634 mmHg 90%
    09:00 -8°C° 0.1 mm 3 mps 635 mmHg 89%
    10:00 -8°C° 0.1 mm 3 mps 635 mmHg 87%
    11:00 -8°C° 0.2 mm 3 mps 635 mmHg 87%
    12:00 -8°C° 0.2 mm 3 mps 635 mmHg 87%
    13:00 -7°C° 0.2 mm 3 mps 635 mmHg 86%
    14:00 -8°C° 0.3 mm 3 mps 635 mmHg 88%
    15:00 -8°C° 0.3 mm 3 mps 635 mmHg 89%
    16:00 -7°C° 0.3 mm 2 mps 635 mmHg 91%
    17:00 -8°C° 0.2 mm 2 mps 636 mmHg 92%
    18:00 -8°C° 0.2 mm 2 mps 636 mmHg 92%
    19:00 -9°C° 0.2 mm 2 mps 636 mmHg 93%
    20:00 -9°C° 0 mm 2 mps 636 mmHg 93%
    21:00 -10°C° 0 mm 2 mps 636 mmHg 93%
    22:00 -12°C° 0 mm 2 mps 636 mmHg 93%
    23:00 -13°C° 0 mm 2 mps 636 mmHg 92%

    29 January, Tuesday

    Time Temperature Precipitation Wind Pressure Humidity
    00:00 -13°C° 0 mm 2 mps 636 mmHg 90%
    01:00 -14°C° 0 mm 2 mps 636 mmHg 89%
    02:00 -14°C° 0 mm 2 mps 635 mmHg 87%
    03:00 -14°C° 0 mm 2 mps 635 mmHg 85%
    04:00 -15°C° 0 mm 2 mps 635 mmHg 83%
    05:00 -15°C° 0 mm 2 mps 634 mmHg 80%
    06:00 -15°C° 0 mm 2 mps 634 mmHg 78%
    07:00 -15°C° 0 mm 2 mps 634 mmHg 76%
    08:00 -14°C° 0.2 mm 3 mps 635 mmHg 79%
    09:00 -13°C° 0.2 mm 3 mps 635 mmHg 82%
    10:00 -12°C° 0.2 mm 3 mps 636 mmHg 85%
    11:00 -11°C° 0.4 mm 4 mps 636 mmHg 85%
    12:00 -10°C° 0.4 mm 4 mps 636 mmHg 85%
    13:00 -9°C° 0.4 mm 4 mps 636 mmHg 85%
    14:00 -9°C° 0.4 mm 4 mps 636 mmHg 86%
    15:00 -9°C° 0.4 mm 4 mps 636 mmHg 87%
    16:00 -9°C° 0.4 mm 4 mps 636 mmHg 87%
    17:00 -9°C° 0.9 mm 4 mps 636 mmHg 89%
    18:00 -10°C° 0.9 mm 4 mps 637 mmHg 91%
    19:00 -10°C° 0.9 mm 4 mps 637 mmHg 93%
    20:00 -9°C° 0.6 mm 3 mps 637 mmHg 93%
    21:00 -9°C° 0.6 mm 3 mps 637 mmHg 93%
    22:00 -9°C° 0.6 mm 3 mps 637 mmHg 94%
    23:00 -10°C° 0.3 mm 3 mps 637 mmHg 93%
    Show more